COSMOS 1275 DEB

Satellite information

Favourite Embed

Satellite Type and Status

DEBRISIN ORBIT

Key statistics

Satellite COSMOS 1275 DEB at a glance.

Uptime

16264

Days in orbit

Revolutions

≈ 14.4

Per day

Orbit

LEO

Low Earth Orbit

Inclination

83.0

Latest

Satellite identification and parameters

Extended collection of information and parameters for COSMOS 1275 DEB.

Object identification

Identified? True

Debris? True

Object name: COSMOS 1275 DEB

International designator: 1981-053FX

Object number (NORAD): 13477

Object ID (CCSDS): 13477

Country: COMMONWEALTH OF INDEPENDENT STATES (CIS)

Current information (Y/N): Y

RCS size: SMALL

Orbital parameters

Period: 100.133 minutes

Inclination: 82.9899 deg

SMA: 7142.954 km

Apoapsis: 803.11 km

Periapsis: 726.528 km

RAAN: 90.0593 deg

Eccentricy: 0.00536069

Argument of periapsis: 181.7762 deg

Mean anomaly: 178.3248 deg

Mean motion: 14.38089637 rev/day

Mean motion (dot): 0.00012881 rev/day2

B* drag term: 0.0041718396 1/REarth

Two-line elements (TLE)

Creation date: Dec. 12, 2025, 10:14 a.m.

Reference frame: TEME

Reference center: EARTH

Epoch: Dec. 12, 2025, 6:35 a.m. UTC

TLE line 0: 0 COSMOS 1275 DEB

TLE line 1: 1 13477U 81053FX 25346.27461642 .00012881 00000-0 41718-2 0 9994

TLE line 2: 2 13477 82.9899 90.0593 0053607 181.7762 178.3248 14.38089637218517

Live tracking on map

Real-time ground track for satellite COSMOS 1275 DEB.

In-orbit conjunctions

A list of the most updated potential collisions computed for object COSMOS 1275 DEB.

Target Orbit TCA Probability of collision Miss distance Type
SL-8 R/B LEO 2025-12-13 21:38:45 0.0001137277 12.0 (m) ROCKET BODY
THOR BURNER 2 R/B SSO 2025-07-26 21:46:03 0.0003092598 62.0 (m) ROCKET BODY
RADARSAT SSO 2025-04-12 03:22:43 0.0001298519 199.0 (m) PAYLOAD
CZ-6A DEB SSO 2025-02-19 15:46:14 0.0001014118 433.0 (m) DEBRIS

Associated space launch

Navigation satellite providing location information for the Tsiklon-B navigation system

COSMOS 1275 DEB was lifted into orbit during the mission ‘Kosmos-3M | Parus 27’, on board a Kosmos-3M space rocket.

The launch took place on June 4, 1981, 3:41 p.m. from 132/2.

For more information about the launch, click the button.

Launch to space Kosmos-3M | Parus 27
Kosmos-3M | Parus 27

Agency: N/A

Status: Launch Successful

Launch date: June 4, 1981, 3:41 p.m. UTC

Rocket: Kosmos-3M

Launch pad: 132/2

Location: Plesetsk Cosmodrome, Russian Federation

...

Latest news about this satellite

There are no fresh news available about this satellite. Check back as we update our databases every day.


Newsletter sign-up

Weekly statistics, charts and insights to help you stay on top of the space industry.